TimeEDT,TemperatureF,Dew PointF,Humidity,Sea Level PressureIn,VisibilityMPH,Wind Direction,Wind SpeedMPH,Gust SpeedMPH,PrecipitationIn,Events,Conditions,WindDirDegrees,DateUTC
12:53 AM,72.0,68.0,87,29.98,4.0,Calm,Calm,-,N/A,,Clear,0,2013-07-09 04:53:00
1:00 AM,71.6,66.2,83,29.99,1.8,Calm,Calm,-,N/A,,Partly Cloudy,0,2013-07-09 05:00:00
1:24 AM,71.6,66.2,83,29.98,2.0,Calm,Calm,-,N/A,,Partly Cloudy,0,2013-07-09 05:24:00
1:44 AM,69.8,66.2,88,29.98,1.8,Calm,Calm,-,N/A,,Partly Cloudy,0,2013-07-09 05:44:00
1:53 AM,70.0,66.9,90,29.98,1.5,Calm,Calm,-,N/A,,Partly Cloudy,0,2013-07-09 05:53:00
2:02 AM,69.8,66.2,88,29.99,1.0,Calm,Calm,-,N/A,,Mist,0,2013-07-09 06:02:00
2:12 AM,69.8,66.2,88,29.99,0.8,Calm,Calm,-,N/A,,Mist,0,2013-07-09 06:12:00
2:18 AM,69.8,66.2,88,29.99,1.0,Calm,Calm,-,N/A,,Mist,0,2013-07-09 06:18:00
2:24 AM,69.8,66.2,88,29.99,1.8,Calm,Calm,-,N/A,,Scattered Clouds,0,2013-07-09 06:24:00
2:26 AM,69.8,64.4,83,29.99,3.0,WSW,3.5,-,N/A,,Scattered Clouds,240,2013-07-09 06:26:00
2:43 AM,69.8,66.2,88,29.99,2.5,Calm,Calm,-,N/A,,Partly Cloudy,0,2013-07-09 06:43:00
2:51 AM,69.8,64.4,83,29.99,1.0,South,3.5,-,N/A,,Mist,190,2013-07-09 06:51:00
2:53 AM,68.0,64.9,90,29.98,0.5,SSW,3.5,-,N/A,Fog,Fog,200,2013-07-09 06:53:00
3:02 AM,69.8,66.2,88,29.99,0.5,Calm,Calm,-,N/A,Fog,Fog,0,2013-07-09 07:02:00
3:06 AM,69.8,66.2,88,29.99,1.0,NW,3.5,-,N/A,,Mist,310,2013-07-09 07:06:00
3:09 AM,69.8,66.2,88,29.99,1.5,Calm,Calm,-,N/A,,Scattered Clouds,0,2013-07-09 07:09:00
3:27 AM,69.8,66.2,88,29.99,2.5,NW,5.8,-,N/A,,Clear,320,2013-07-09 07:27:00
3:35 AM,71.6,66.2,83,29.99,3.0,NNW,4.6,-,N/A,,Clear,330,2013-07-09 07:35:00
3:53 AM,71.1,66.9,87,29.98,3.0,Calm,Calm,-,N/A,,Clear,0,2013-07-09 07:53:00
4:07 AM,69.8,64.4,83,29.99,2.0,Calm,Calm,-,N/A,,Clear,0,2013-07-09 08:07:00
4:22 AM,68.0,64.4,88,29.99,1.0,Calm,Calm,-,N/A,,Mist,0,2013-07-09 08:22:00
4:24 AM,68.0,64.4,88,29.99,0.5,Calm,Calm,-,N/A,Fog,Fog,0,2013-07-09 08:24:00
4:33 AM,68.0,64.4,88,29.99,1.0,Calm,Calm,-,N/A,,Mist,0,2013-07-09 08:33:00
4:47 AM,66.2,64.4,94,30.00,2.0,Calm,Calm,-,N/A,,Mostly Cloudy,0,2013-07-09 08:47:00
4:50 AM,66.2,64.4,94,30.00,1.2,Calm,Calm,-,N/A,,Mostly Cloudy,0,2013-07-09 08:50:00
4:53 AM,66.9,63.0,87,29.99,0.8,Calm,Calm,-,N/A,,Mist,0,2013-07-09 08:53:00
5:00 AM,66.2,62.6,88,30.00,0.2,Calm,Calm,-,N/A,Fog,Fog,0,2013-07-09 09:00:00
5:16 AM,66.2,62.6,88,30.00,0.2,Calm,Calm,-,N/A,Fog,Fog,0,2013-07-09 09:16:00
5:53 AM,66.9,64.0,90,29.99,0.2,Calm,Calm,-,0.01,Fog,Fog,0,2013-07-09 09:53:00
6:53 AM,68.0,64.9,90,29.99,0.2,Calm,Calm,-,N/A,Fog,Fog,0,2013-07-09 10:53:00
7:53 AM,69.1,66.0,90,29.99,0.2,Calm,Calm,-,N/A,Fog,Fog,0,2013-07-09 11:53:00
8:01 AM,69.8,66.2,88,30.01,0.5,Calm,Calm,-,N/A,Fog,Fog,0,2013-07-09 12:01:00
8:28 AM,69.8,66.2,88,30.01,0.8,Calm,Calm,-,N/A,,Overcast,0,2013-07-09 12:28:00
8:35 AM,69.8,66.2,88,30.01,1.0,Calm,Calm,-,N/A,,Overcast,0,2013-07-09 12:35:00
8:48 AM,69.8,66.2,88,30.01,1.5,Calm,Calm,-,N/A,,Overcast,0,2013-07-09 12:48:00
8:53 AM,71.1,66.9,87,30.00,1.8,Calm,Calm,-,N/A,,Overcast,0,2013-07-09 12:53:00
9:20 AM,71.6,68.0,88,30.00,2.5,Variable,3.5,-,N/A,,Overcast,0,2013-07-09 13:20:00
9:48 AM,71.6,68.0,88,30.01,3.0,Calm,Calm,-,N/A,,Mostly Cloudy,0,2013-07-09 13:48:00
9:53 AM,72.0,68.0,87,30.00,3.0,Calm,Calm,-,N/A,,Mostly Cloudy,0,2013-07-09 13:53:00
10:24 AM,75.2,68.0,78,30.00,4.0,Calm,Calm,-,N/A,,Haze,0,2013-07-09 14:24:00
10:53 AM,79.0,70.0,74,29.99,5.0,South,4.6,-,N/A,,Haze,190,2013-07-09 14:53:00
11:53 AM,82.0,69.1,65,29.98,10.0,South,4.6,-,0.09,,Partly Cloudy,190,2013-07-09 15:53:00
12:53 PM,84.9,70.0,61,29.97,10.0,WSW,6.9,-,N/A,,Mostly Cloudy,240,2013-07-09 16:53:00
1:53 PM,84.9,73.0,67,29.95,10.0,Calm,Calm,-,N/A,,Mostly Cloudy,0,2013-07-09 17:53:00
2:53 PM,89.1,75.9,65,29.93,10.0,SW,8.1,-,N/A,,Partly Cloudy,220,2013-07-09 18:53:00
3:53 PM,82.0,73.9,76,29.93,5.0,WSW,8.1,-,0.02,Rain-Thunderstorm,Light Rain,250,2013-07-09 19:53:00
4:13 PM,82.4,73.4,74,29.94,6.0,SW,13.8,-,0.00,,Haze,230,2013-07-09 20:13:00
4:24 PM,80.6,73.4,79,29.94,2.5,SW,12.7,-,0.04,Rain-Thunderstorm,Rain,220,2013-07-09 20:24:00
4:35 PM,80.6,73.4,79,29.94,4.0,SW,11.5,-,0.05,Rain-Thunderstorm,Light Rain,230,2013-07-09 20:35:00
4:53 PM,78.1,73.0,84,29.91,3.0,WSW,12.7,-,0.06,Rain,Light Rain,240,2013-07-09 20:53:00
5:31 PM,78.8,73.4,83,29.90,3.0,SW,5.8,-,0.01,Rain,Light Rain,230,2013-07-09 21:31:00
5:53 PM,79.0,73.9,84,29.88,3.0,South,6.9,-,0.01,,Haze,190,2013-07-09 21:53:00
6:02 PM,78.8,73.4,83,29.90,2.5,SW,9.2,-,N/A,,Haze,220,2013-07-09 22:02:00
6:18 PM,78.8,73.4,83,29.90,3.0,SSW,8.1,-,N/A,,Haze,210,2013-07-09 22:18:00
6:27 PM,78.8,73.4,83,29.90,3.0,SW,6.9,-,N/A,,Haze,220,2013-07-09 22:27:00
6:49 PM,78.8,73.4,83,29.90,4.0,SW,6.9,-,N/A,,Haze,230,2013-07-09 22:49:00
6:53 PM,78.1,73.0,84,29.89,4.0,SW,6.9,-,N/A,,Haze,220,2013-07-09 22:53:00
7:53 PM,79.0,72.0,79,29.87,8.0,South,6.9,-,N/A,,Mostly Cloudy,190,2013-07-09 23:53:00
8:14 PM,78.8,71.6,78,29.88,8.0,SSW,6.9,-,N/A,,Mostly Cloudy,200,2013-07-10 00:14:00
8:53 PM,79.0,71.1,77,29.87,10.0,SSW,8.1,-,N/A,,Overcast,200,2013-07-10 00:53:00
9:53 PM,78.1,71.1,79,29.86,10.0,South,5.8,-,N/A,,Partly Cloudy,190,2013-07-10 01:53:00
10:53 PM,79.0,72.0,79,29.86,10.0,SSW,4.6,-,N/A,,Mostly Cloudy,200,2013-07-10 02:53:00
11:53 PM,81.0,73.0,77,29.86,10.0,SW,8.1,-,N/A,,Overcast,220,2013-07-10 03:53:00